[[{"header":{"parameterUnit":"m.s-1","parameterCategory":1,"la1":30.2991,"la2":30.254,"lo1":-89.0895,"lo2":-89.0444,"dy":0.0017,"dx":0.0017,"nx":28,"ny":28,"refTime":"2023-03-13T21:00:00:Z","depth":0,"parameterNumber":2,"parameterNumberName":"U-component_of_WINDS"},"data":[0,0,0,0,0,0,0,0,0,0,0,0,0,0,0,0,0,0,0,0,0,0,0,0,0,0,0,0,0,0,0,0,0,0,0,0,0,0,0,0,0,0,0,0,0,0,0,0,0,0,0,0,0,0,0,0,0,0,-0.3738,-0.3738,0,-0.375,-0.375,-0.375,-0.3722,-0.3722,-0.3721,-0.372,-0.3734,-0.3735,-0.3737,0,0,0,0,0,0,0,0,0,0,0,0,0,-0.3692,-0.3693,-0.3738,-0.3738,-0.3738,-0.375,-0.375,-0.375,-0.3723,-0.3722,-0.372,-0.3719,-0.3734,-0.3735,-0.3737,0,0,0,0,0,0,0,0,0,0,0,0,0,-0.3709,-0.3693,-0.3738,-0.3726,-0.3725,-0.375,-0.375,-0.375,-0.3723,-0.3722,-0.372,-0.3719,-0.3733,-0.3735,-0.3737,-0.3775,0,0,-0.3742,-0.3743,0,0,0,0,0,0,0,0,-0.3708,-0.3711,-0.3727,-0.3727,-0.3726,-0.3733,-0.3739,-0.3758,-0.3723,-0.3724,-0.372,-0.3718,-0.3735,-0.3737,-0.3742,-0.3775,-0.3776,-0.3743,-0.3744,-0.3744,-0.3745,0,0,0,0,0,0,0,-0.3707,-0.371,-0.3743,-0.3728,-0.3727,-0.372,-0.3721,-0.3743,-0.3737,-0.3724,-0.3722,-0.3723,-0.3734,-0.374,-0.3742,-0.3776,-0.3742,-0.3744,-0.3745,-0.3746,-0.384,-0.3842,0,0,0,0,0,0,-0.3707,-0.3709,-0.3742,-0.3743,-0.3713,-0.3722,-0.3723,-0.3732,-0.3736,-0.3736,-0.3724,-0.3722,-0.3738,-0.374,-0.3742,-0.3787,-0.3744,-0.3746,-0.3747,-0.3839,-0.3841,-0.3842,0,0,0,0,0,0,-0.3706,-0.371,-0.3742,-0.3725,-0.3729,-0.3724,-0.3735,-0.3733,-0.3739,-0.3737,-0.3736,-0.3731,-0.3737,-0.374,-0.3767,-0.3787,-0.3747,-0.3749,-0.3837,-0.384,-0.3842,-0.3876,0,0,0,0,0,0,-0.3705,-0.371,-0.3724,-0.3726,-0.373,-0.3766,-0.3736,-0.3734,-0.3742,-0.3739,-0.3743,-0.3743,-0.3736,-0.3764,-0.3768,-0.3789,-0.375,-0.3836,-0.3838,-0.3841,-0.3873,-0.3879,-0.3885,0,0,0,0,0,-0.3703,-0.3734,-0.3725,-0.3729,-0.3748,-0.3767,-0.3769,-0.376,-0.3744,-0.3758,-0.3757,-0.3743,-0.3784,-0.3767,-0.3772,-0.3793,-0.3834,-0.3838,-0.3841,-0.3871,-0.3878,-0.3884,0,0,0,0,0,0,-0.3736,-0.3734,-0.3724,-0.3756,-0.3762,-0.3762,-0.378,-0.3768,-0.3779,-0.3776,-0.3764,-0.3766,-0.3795,-0.3796,-0.3778,-0.3829,-0.3806,-0.3811,-0.3828,-0.3835,-0.384,-0.384,-0.3751,0,0,0,0,0,-0.3747,-0.3762,-0.376,-0.3788,-0.3792,-0.3785,-0.3793,-0.3786,-0.3791,-0.3794,-0.3794,-0.3801,-0.3815,-0.3824,-0.3837,-0.3873,-0.3874,-0.389,-0.3895,-0.39,-0.3904,-0.3923,-0.393,-0.3853,-0.3853,-0.3853,0,0,-0.377,-0.3771,-0.3781,-0.3795,-0.3798,-0.3815,-0.3788,-0.3806,-0.3819,-0.3797,-0.3822,-0.3822,-0.3828,-0.386,-0.3873,-0.3862,-0.3925,-0.3904,-0.3908,-0.3909,-0.3927,-0.3934,-0.3941,-0.3855,-0.3855,-0.3854,0,0,-0.382,-0.3822,-0.3846,-0.3849,-0.3854,-0.385,-0.3855,-0.3857,-0.3856,-0.3881,-0.3865,-0.3879,-0.3904,-0.3909,-0.3915,-0.3965,-0.3953,-0.3969,-0.3999,-0.4018,-0.4024,-0.4029,-0.4048,-0.4054,-0.3973,-0.3973,-0.3973,0,-0.3848,-0.3872,-0.386,-0.388,-0.3886,-0.3866,-0.389,-0.3894,-0.3903,-0.3909,-0.3895,-0.3925,-0.3928,-0.396,-0.3972,-0.3977,-0.3983,-0.397,-0.4024,-0.4029,-0.4034,-0.4051,-0.4058,-0.3975,-0.3975,-0.3975,-0.3975,0,-0.3907,-0.3923,-0.3942,-0.395,-0.3959,-0.3981,-0.3972,-0.3982,-0.3973,-0.397,-0.3995,-0.3997,-0.401,-0.4017,-0.4009,-0.4048,-0.404,-0.4025,-0.4002,-0.4043,-0.406,-0.4066,-0.3978,-0.3978,-0.3977,-0.3977,0,0,-0.398,-0.398,-0.3987,-0.3991,-0.3994,-0.4007,-0.4027,-0.4039,-0.4048,-0.4054,-0.4072,-0.4092,-0.4078,-0.4084,-0.4076,-0.4092,-0.4132,-0.4075,-0.4075,-0.4087,-0.4175,-0.4188,-0.4196,-0.4123,-0.4125,-0.4126,-0.4175,0,-0.403,-0.4065,-0.4054,-0.409,-0.4105,-0.4085,-0.4103,-0.4107,-0.4104,-0.4116,-0.4113,-0.4128,-0.4108,-0.4112,-0.4126,-0.4124,-0.415,-0.412,-0.414,-0.4141,-0.4141,-0.4204,-0.4217,-0.4264,-0.4181,-0.4182,-0.4183,0,-0.4094,-0.4102,-0.4139,-0.4139,-0.4145,-0.4161,-0.4171,-0.4183,-0.4186,-0.4183,-0.4189,-0.4178,-0.4198,-0.4173,-0.4201,-0.4181,-0.4188,-0.4188,-0.419,-0.4193,-0.4166,-0.4209,-0.4279,-0.4286,-0.4193,-0.4192,-0.4192,0,-0.4145,-0.4165,-0.4189,-0.4193,-0.4193,-0.4205,-0.4205,-0.4208,-0.4215,-0.4223,-0.4228,-0.4238,-0.4245,-0.4253,-0.4245,-0.4227,-0.4274,-0.4249,-0.4273,-0.4273,-0.4285,-0.4284,-0.4357,-0.4287,-0.4287,-0.4287,-0.4287,0,-0.4203,-0.4227,-0.4212,-0.4227,-0.4253,-0.424,-0.4266,-0.4264,-0.4266,-0.4281,-0.4263,-0.4278,-0.4265,-0.4278,-0.4271,-0.4296,-0.4298,-0.4297,-0.4295,-0.4299,-0.4299,-0.4305,-0.4302,-0.4289,-0.4288,-0.4288,-0.4288,0,-0.4265,-0.4256,-0.4281,-0.4279,-0.4278,-0.4298,-0.4295,-0.431,-0.4304,-0.4323,-0.4327,-0.432,-0.4334,-0.4326,-0.4341,-0.4336,-0.4368,-0.4361,-0.4367,-0.4365,-0.439,-0.4388,-0.447,-0.448,-0.4403,-0.4403,-0.4404,0,-0.4303,-0.4321,-0.4319,-0.4328,-0.4329,-0.4343,-0.435,-0.4337,-0.4345,-0.435,-0.4363,-0.4376,-0.4386,-0.441,-0.4406,-0.4417,-0.4411,-0.4439,-0.4413,-0.4416,-0.4413,-0.4412,-0.4414,-0.4445,-0.4446,-0.4446,-0.4447,0,-0.4373,-0.4367,-0.4378,-0.4386,-0.4395,-0.4402,-0.4407,-0.4415,-0.4401,-0.4411,-0.4425,-0.4433,-0.4447,-0.446,-0.4469,-0.447,-0.4457,-0.4455,-0.4461,-0.4466,-0.4469,-0.4469,-0.4382,-0.4453,-0.4453,-0.4452,-0.4452,-0.4452,-0.4425,-0.4439,-0.444,-0.4452,-0.4454,-0.4459,-0.4472,-0.4468,-0.4479,-0.449,-0.4481,-0.4498,-0.45,-0.4511,-0.4514,-0.4527,-0.4516,-0.4525,-0.4527,-0.453,-0.4534,-0.4466,-0.4528,-0.4528,-0.4528,-0.4528,-0.4527,0,-0.4494,-0.4493,-0.4504,-0.4511,-0.4521,-0.4505,-0.451,-0.4519,-0.4534,-0.4537,-0.4546,-0.4562,-0.4574,-0.457,-0.4581,-0.4592,-0.4587,-0.4596,-0.4596,-0.4596,-0.4542,-0.4536,-0.46,-0.46,-0.46,-0.46,-0.46,-0.46,-0.4531,-0.4555,-0.4549,-0.4573,-0.4572,-0.4588,-0.4592,-0.4596,-0.4599,-0.4617,-0.4626,-0.4623,-0.4624,-0.4634,-0.4644,-0.4643,-0.4648,-0.466,-0.4657,-0.4607,-0.46,-0.4593,-0.4587,-0.4661,-0.4661,-0.4709,-0.471,-0.471]},{"header":{"parameterUnit":"m.s-1","parameterCategory":1,"la1":30.2991,"la2":30.254,"lo1":-89.0895,"lo2":-89.0444,"dy":0.0017,"dx":0.0017,"nx":28,"ny":28,"refTime":"2023-03-13T21:00:00:Z","depth":0,"parameterNumber":3,"parameterNumberName":"V-component_of_WINDS"},"data":[0,0,0,0,0,0,0,0,0,0,0,0,0,0,0,0,0,0,0,0,0,0,0,0,0,0,0,0,0,0,0,0,0,0,0,0,0,0,0,0,0,0,0,0,0,0,0,0,0,0,0,0,0,0,0,0,0,0,-6.8949,-6.895,0,-6.9011,-6.9012,-6.9012,-6.896,-6.8958,-6.8956,-6.8954,-6.9012,-6.9015,-6.9019,0,0,0,0,0,0,0,0,0,0,0,0,0,-6.8783,-6.8786,-6.8949,-6.895,-6.8951,-6.9011,-6.9012,-6.9012,-6.8961,-6.8958,-6.8956,-6.8953,-6.9011,-6.9015,-6.9019,0,0,0,0,0,0,0,0,0,0,0,0,0,-6.8851,-6.8787,-6.8949,-6.8932,-6.8931,-6.9011,-6.9012,-6.9013,-6.8961,-6.8958,-6.8955,-6.8952,-6.9009,-6.9015,-6.902,-6.9117,0,0,-6.9036,-6.9038,0,0,0,0,0,0,0,0,-6.8847,-6.8857,-6.8934,-6.8934,-6.8933,-6.8975,-6.8974,-6.9047,-6.8962,-6.895,-6.8954,-6.895,-6.9002,-6.9008,-6.9026,-6.912,-6.9122,-6.9036,-6.904,-6.9042,-6.9043,0,0,0,0,0,0,0,-6.8842,-6.8854,-6.8973,-6.8935,-6.8935,-6.892,-6.8927,-6.8988,-6.8993,-6.8951,-6.8947,-6.8955,-6.9001,-6.9021,-6.9027,-6.9123,-6.9036,-6.9041,-6.9044,-6.9046,-6.9301,-6.9305,0,0,0,0,0,0,-6.884,-6.885,-6.8971,-6.8975,-6.8881,-6.8926,-6.8933,-6.8964,-6.8992,-6.8993,-6.8958,-6.8953,-6.9014,-6.9021,-6.9029,-6.9146,-6.9042,-6.9047,-6.905,-6.9298,-6.9302,-6.9306,0,0,0,0,0,0,-6.8836,-6.8851,-6.8969,-6.8912,-6.8926,-6.8932,-6.8968,-6.8967,-6.8988,-6.8998,-6.8998,-6.8978,-6.9011,-6.9021,-6.9096,-6.9147,-6.9049,-6.9054,-6.9294,-6.9299,-6.9304,-6.938,0,0,0,0,0,0,-6.8832,-6.885,-6.8888,-6.8913,-6.8929,-6.9037,-6.8971,-6.8971,-6.8998,-6.8991,-6.9017,-6.9018,-6.901,-6.9089,-6.9102,-6.9153,-6.9058,-6.9289,-6.9296,-6.9302,-6.9373,-6.9388,-6.94,0,0,0,0,0,-6.8826,-6.8905,-6.889,-6.8905,-6.8977,-6.904,-6.9049,-6.9039,-6.9002,-6.904,-6.9046,-6.9017,-6.914,-6.9097,-6.9111,-6.9164,-6.9286,-6.9294,-6.9302,-6.9367,-6.9385,-6.94,0,0,0,0,0,0,-6.8884,-6.8908,-6.8892,-6.8982,-6.901,-6.9031,-6.9078,-6.9058,-6.9095,-6.9087,-6.9072,-6.9078,-6.9158,-6.9168,-6.912,-6.9261,-6.9206,-6.9218,-6.9251,-6.9268,-6.9281,-6.9277,-6.9063,0,0,0,0,0,-6.8907,-6.8958,-6.8976,-6.9054,-6.9069,-6.9072,-6.9098,-6.9089,-6.9116,-6.9127,-6.9139,-6.9165,-6.921,-6.9239,-6.9281,-6.9374,-6.938,-6.9418,-6.9432,-6.9442,-6.9453,-6.9504,-6.9522,-6.9333,-6.9332,-6.9332,0,0,-6.8955,-6.8975,-6.9008,-6.9066,-6.9086,-6.9138,-6.9081,-6.9138,-6.9176,-6.9135,-6.9208,-6.9218,-6.9246,-6.9331,-6.9369,-6.9342,-6.9506,-6.9453,-6.9461,-6.9466,-6.9515,-6.9532,-6.9548,-6.9338,-6.9337,-6.9336,0,0,-6.9071,-6.9091,-6.9159,-6.9181,-6.9214,-6.9215,-6.9232,-6.9257,-6.9263,-6.9336,-6.9306,-6.9351,-6.9427,-6.9449,-6.947,-6.9597,-6.9571,-6.961,-6.968,-6.9731,-6.9746,-6.9759,-6.9805,-6.9822,-6.962,-6.962,-6.962,0,-6.9126,-6.9205,-6.9196,-6.9256,-6.9283,-6.925,-6.9319,-6.934,-6.9383,-6.9402,-6.9371,-6.9469,-6.9485,-6.9576,-6.9607,-6.9625,-6.9643,-6.9607,-6.9744,-6.9758,-6.977,-6.9814,-6.9831,-6.9625,-6.9624,-6.9624,-6.9623,0,-6.9273,-6.9328,-6.9379,-6.9425,-6.9457,-6.9521,-6.952,-6.9553,-6.9542,-6.9546,-6.9621,-6.964,-6.9686,-6.9707,-6.9694,-6.9796,-6.9779,-6.9747,-6.9692,-6.9793,-6.9834,-6.985,-6.9631,-6.963,-6.9628,-6.9627,0,0,-6.9425,-6.9467,-6.9486,-6.9507,-6.9542,-6.9583,-6.9646,-6.9693,-6.9722,-6.9753,-6.9805,-6.9872,-6.9844,-6.9868,-6.9857,-6.9902,-7.0003,-6.9864,-6.9865,-6.9891,-7.0118,-7.0142,-7.0162,-6.9986,-6.9989,-6.9991,-7.0116,0,-6.9543,-6.9654,-6.9648,-6.9752,-6.9804,-6.9774,-6.9828,-6.9855,-6.9861,-6.9905,-6.991,-6.9959,-6.9916,-6.9931,-6.9974,-6.9981,-7.0048,-6.9972,-7.0034,-7.0036,-7.0029,-7.0183,-7.0209,-7.0326,-7.0131,-7.0134,-7.0136,0,-6.9695,-6.9735,-6.9845,-6.9874,-6.9895,-6.9944,-6.9988,-7.003,-7.0059,-7.0061,-7.0089,-7.0072,-7.0135,-7.0079,-7.0164,-7.0113,-7.0138,-7.0145,-7.015,-7.0156,-7.0093,-7.0194,-7.0362,-7.038,-7.0161,-7.0159,-7.0157,0,-6.9797,-6.9878,-6.9955,-6.9973,-7.0008,-7.0044,-7.006,-7.0087,-7.0116,-7.0153,-7.0172,-7.0215,-7.0239,-7.0272,-7.0268,-7.0227,-7.0356,-7.0298,-7.0358,-7.0359,-7.0387,-7.0386,-7.0563,-7.0402,-7.0401,-7.0401,-7.0401,0,-6.993,-6.9998,-7.0001,-7.0049,-7.0125,-7.0117,-7.0192,-7.0204,-7.0228,-7.0276,-7.0252,-7.0298,-7.0288,-7.0333,-7.0329,-7.0402,-7.0412,-7.0415,-7.0413,-7.0418,-7.0418,-7.0434,-7.0427,-7.0406,-7.0405,-7.0404,-7.0403,0,-7.0056,-7.0061,-7.0143,-7.0171,-7.018,-7.0235,-7.0257,-7.0302,-7.0307,-7.0369,-7.0382,-7.039,-7.0442,-7.044,-7.0498,-7.0496,-7.0586,-7.0574,-7.0577,-7.0575,-7.0636,-7.063,-7.083,-7.0856,-7.0677,-7.0679,-7.068,0,-7.0141,-7.0194,-7.0229,-7.0261,-7.028,-7.0331,-7.0362,-7.0356,-7.0389,-7.0427,-7.0467,-7.0518,-7.0558,-7.0642,-7.0652,-7.0697,-7.0687,-7.0754,-7.0693,-7.0697,-7.0689,-7.0687,-7.0692,-7.0766,-7.0768,-7.0769,-7.077,0,-7.0292,-7.0293,-7.0339,-7.0387,-7.0425,-7.0462,-7.0496,-7.0523,-7.052,-7.0558,-7.0613,-7.0644,-7.0706,-7.0756,-7.08,-7.0814,-7.0793,-7.079,-7.0806,-7.0812,-7.0812,-7.0814,-7.0611,-7.0785,-7.0784,-7.0783,-7.0782,-7.0781,-7.0402,-7.0448,-7.0481,-7.0533,-7.0559,-7.0592,-7.0636,-7.0647,-7.0693,-7.0745,-7.0738,-7.0799,-7.0828,-7.0884,-7.0903,-7.095,-7.0926,-7.095,-7.0956,-7.0962,-7.097,-7.0804,-7.0958,-7.0957,-7.0957,-7.0956,-7.0956,0,-7.0553,-7.0573,-7.0622,-7.0671,-7.0713,-7.0691,-7.0728,-7.0764,-7.0819,-7.0848,-7.0889,-7.0953,-7.1002,-7.1016,-7.1064,-7.1099,-7.109,-7.1111,-7.1109,-7.1113,-7.0988,-7.0969,-7.1118,-7.1118,-7.1118,-7.1118,-7.1118,-7.1118,-7.0636,-7.0714,-7.0719,-7.0809,-7.0828,-7.089,-7.0913,-7.0943,-7.0967,-7.104,-7.1082,-7.1092,-7.1115,-7.1165,-7.1209,-7.1212,-7.1231,-7.1257,-7.1255,-7.1138,-7.1122,-7.1106,-7.1089,-7.126,-7.1261,-7.1377,-7.1378,-7.1379]}]]